Wind_Speed
55 55 54 54 54 53 52 51 50 48 46 46 46 45 44 43 41 39 37 38 37 37 38 37 35 34 32 33 33 34 34 31 31 36 38 37 32 27 30 33 37 37 38 31 29
60 59 57 57 56 57 56 55 53 51 50 49 48 47 46 46 43 42 39 41 40 39 40 39 39 37 36 37 36 36 36 34 35 38 39 41 35 36 28 33 37 38 38 33 28
64 62 61 60 60 59 59 59 57 55 54 53 52 50 50 49 48 44 45 44 43 42 42 41 41 41 40 41 40 38 39 39 38 41 41 39 42 39 30 31 36 39 32 31 29
66 65 63 63 62 61 61 61 59 59 58 57 56 54 53 53 51 49 46 45 47 47 45 44 44 45 43 43 43 43 43 43 41 45 44 40 44 44 38 31 34 38 36 28 29
66 65 64 63 63 62 62 62 62 62 61 60 59 57 56 53 51 52 49 49 50 50 48 49 49 48 47 45 47 47 43 47 47 47 47 41 43 45 38 31 33 38 41 37 29
68 69 67 66 65 64 64 64 65 64 62 61 60 58 56 55 55 56 55 53 53 53 53 53 51 52 51 49 49 49 50 50 48 51 48 44 43 47 36 35 34 39 39 43 33
66 67 70 71 67 65 65 65 64 64 64 62 61 61 60 57 58 59 56 56 56 57 56 55 55 55 52 52 54 53 53 53 49 48 48 49 47 45 42 40 37 38 42 43 42
71 73 69 66 67 66 65 64 65 65 65 65 65 65 61 60 59 59 59 58 59 57 56 56 56 57 56 56 57 56 57 56 47 47 50 51 49 43 47 46 41 39 43 44 47
71 69 69 68 67 67 67 68 68 68 67 68 67 65 61 60 60 61 61 58 59 58 56 57 58 56 56 59 60 61 59 55 51 51 53 54 50 46 47 48 42 40 43 47 48
71 71 71 69 69 69 69 69 69 68 68 69 69 67 64 62 59 59 60 58 59 59 58 58 59 59 59 61 62 58 56 54 54 51 56 58 53 49 46 47 45 40 42 46 48
73 72 71 71 70 70 71 70 69 70 70 72 69 65 63 61 57 59 60 59 60 62 61 60 60 58 60 57 56 57 58 57 56 54 57 57 53 47 45 45 43 40 40 45 44
77 75 73 71 71 71 72 70 67 68 67 68 67 66 66 64 62 60 61 61 62 63 60 62 60 56 55 54 56 57 58 57 57 56 57 56 56 50 49 45 43 45 46 46 47
79 77 75 74 73 72 71 68 67 68 69 70 68 65 61 64 62 59 59 61 62 61 61 61 56 54 58 57 56 55 54 55 55 51 56 55 56 48 45 42 43 44 48 52 51
79 78 76 74 75 73 72 69 69 70 74 72 69 67 64 64 63 59 60 58 60 60 59 60 57 56 55 53 52 53 47 50 52 50 52 52 60 49 44 42 42 45 50 52 52
78 77 75 76 73 71 70 69 69 69 76 76 71 67 63 64 57 55 54 56 56 56 59 58 55 54 58 53 53 50 47 48 51 54 55 51 55 47 41 40 43 47 49 53 53
78 78 78 77 74 72 73 72 73 71 71 77 73 69 67 64 62 62 58 51 52 54 53 52 59 59 55 54 54 51 51 48 49 44 49 48 49 46 37 39 43 47 49 53 56
80 79 79 78 72 72 71 75 76 68 78 74 74 70 67 62 59 60 58 53 52 52 51 51 53 56 59 56 55 50 48 47 47 49 51 44 47 41 40 42 44 45 50 52 53
78 75 74 73 72 71 72 75 65 73 77 78 73 67 67 62 62 60 57 57 53 53 51 51 51 52 54 57 51 45 43 43 41 43 46 44 46 34 37 37 39 44 45 45 49
57 58 60 62 64 66 69 72 78 78 75 74 73 68 65 60 52 59 61 55 54 53 56 54 51 47 41 46 51 48 47 43 45 45 44 44 42 40 43 48 44 41 44 47 50
43 48 48 52 52 57 63 62 70 73 69 69 68 67 68 65 65 56 55 54 54 56 54 52 46 42 44 43 48 52 46 48 49 46 44 47 53 57 56 54 50 50 47 41 43
54 58 53 52 51 59 65 67 62 60 57 45 53 60 64 52 54 62 66 62 53 59 55 49 47 42 41 44 43 49 54 48 48 49 46 54 44 45 48 37 38 38 35 29 29
52 51 53 56 58 54 65 62 42 55 60 41 36 50 60 52 43 45 68 64 52 45 54 50 44 42 37 37 41 45 49 51 49 48 45 30 21 14 19 25 30 29 32 32 27
42 44 47 51 54 57 52 65 62 41 59 58 44 44 50 70 59 48 44 30 37 49 48 52 49 44 41 38 40 45 46 48 49 50 54 36 33 24 25 30 38 41 40 39 36
39 41 43 44 48 53 51 49 58 59 50 60 44 37 46 42 66 71 63 53 48 35 39 49 51 50 45 39 38 36 40 45 43 50 46 48 36 33 34 38 42 42 43 39 39
41 41 46 45 52 51 50 54 50 41 48 54 66 37 53 46 44 46 35 53 49 47 42 50 47 40 42 37 37 39 40 48 53 49 45 41 41 35 34 38 44 31 32 36 41
36 38 36 35 38 40 44 37 46 33 44 48 67 54 44 57 50 38 27 32 41 46 41 42 49 48 37 36 39 37 34 39 42 47 52 50 47 40 42 37 37 36 38 41 43
38 38 31 32 34 41 47 40 29 33 39 52 36 42 44 59 56 30 32 29 23 24 34 37 34 34 41 41 38 43 38 37 38 35 36 41 36 47 44 42 44 42 40 40 47
Wind_Direction
235 235 236 236 237 239 240 241 243 245 247 249 250 250 251 250 249 250 253 255 254 256 257 257 261 263 268 270 272 270 278 281 288 288 290 293 305 294 289 295 294 293 291 297 293
237 237 236 237 238 239 239 241 243 245 247 248 249 250 252 253 252 252 255 257 257 256 258 259 261 263 264 266 269 273 277 280 278 282 287 294 299 296 296 294 292 292 295 291 288
239 238 238 238 239 239 240 241 242 244 244 246 248 249 252 254 255 254 253 257 260 260 260 261 263 265 264 268 270 271 273 274 279 281 283 289 291 294 294 295 294 289 287 288 282
240 240 239 240 240 240 241 242 242 243 244 246 247 248 250 253 254 252 253 257 259 260 261 262 263 264 264 266 268 268 270 271 273 276 279 283 286 289 290 296 291 282 277 275 274
242 242 241 242 242 242 243 243 244 244 244 246 246 248 249 251 253 256 253 253 255 258 258 258 260 262 264 263 266 270 271 271 272 274 274 276 280 284 286 289 283 278 274 274 265
241 240 244 242 243 244 244 244 245 246 245 245 246 246 246 249 250 253 256 255 255 257 258 259 260 262 264 267 267 269 270 270 269 271 275 277 276 278 286 277 279 276 274 272 264
243 242 241 243 247 246 246 246 246 245 245 245 245 246 247 250 252 254 254 255 254 255 255 257 260 261 264 265 266 268 268 270 269 273 274 272 269 278 280 278 276 271 270 268 266
246 244 245 244 243 246 247 247 248 247 247 246 246 247 249 250 251 252 253 252 252 252 255 257 260 262 263 264 265 265 267 270 271 270 271 268 269 269 272 275 275 268 266 262 262
241 243 242 243 245 245 245 245 246 247 248 248 248 248 247 246 248 248 249 251 253 254 254 255 257 260 262 262 264 263 265 268 267 267 267 267 268 265 269 272 270 267 267 262 259
242 243 243 244 244 244 244 243 243 243 244 245 245 247 249 248 248 251 252 251 253 255 254 254 254 256 259 258 262 268 270 268 265 262 262 264 264 265 265 268 271 265 264 267 263
244 243 243 243 242 243 244 244 244 245 245 246 251 251 251 250 247 248 249 249 250 252 253 253 255 260 260 263 264 264 263 263 262 260 262 266 268 267 268 267 265 264 260 265 261
245 244 244 243 244 243 242 244 245 246 247 247 247 246 247 246 244 243 244 246 249 252 253 254 257 257 258 258 260 260 259 261 260 260 260 261 263 263 266 267 266 262 260 260 262
246 245 244 244 243 243 244 244 244 245 244 244 243 243 245 247 245 245 246 246 245 246 249 252 256 256 255 255 256 257 259 259 260 257 259 260 261 264 267 268 264 262 260 260 262
245 245 245 244 243 243 245 244 243 241 242 241 241 241 241 241 243 243 242 243 242 244 245 249 248 248 250 254 254 256 259 257 257 257 257 263 266 259 264 265 262 261 262 261 261
245 245 244 244 244 244 245 243 243 241 241 240 239 241 240 240 250 248 243 238 241 243 242 247 248 249 251 252 251 255 251 252 254 256 257 259 263 266 262 268 269 263 262 261 258
244 244 244 243 242 240 239 238 237 234 235 240 240 242 239 239 239 238 235 235 237 239 240 241 242 241 245 247 249 250 252 254 254 256 257 263 263 265 268 274 269 263 257 258 261
243 243 243 243 243 239 237 235 232 227 235 235 242 240 239 238 235 233 233 230 232 233 236 236 241 243 243 243 246 247 248 253 255 252 258 261 261 273 274 267 263 267 265 260 259
246 243 242 240 238 236 232 229 227 232 232 236 240 237 236 237 233 230 231 230 228 232 236 239 241 244 247 245 245 247 248 246 256 255 260 258 262 270 267 266 266 267 269 264 262
235 233 234 235 234 228 226 224 226 230 230 234 232 231 229 223 224 225 225 228 233 233 236 238 241 244 249 249 243 239 241 243 247 252 259 261 258 258 258 265 267 263 270 268 266
206 209 210 215 213 214 211 216 224 224 230 228 230 231 230 224 223 222 222 224 226 230 236 240 243 243 245 245 242 238 239 235 239 254 259 263 268 269 268 270 265 261 272 269 266
205 210 201 197 189 201 210 211 219 219 217 220 227 226 222 221 227 228 231 229 228 228 233 238 242 244 250 246 242 238 236 240 247 255 262 263 262 253 259 254 260 259 263 270 266
213 213 205 203 205 201 214 211 209 223 213 204 216 220 220 215 218 223 225 228 227 233 231 233 247 242 245 246 244 240 239 242 242 241 241 251 252 268 285 260 268 269 268 266 261
209 213 208 209 211 203 215 213 204 211 210 202 211 217 222 213 210 207 198 216 235 229 230 230 238 247 250 250 247 240 237 237 240 243 249 243 242 267 284 283 275 276 272 275 273
199 198 200 209 207 206 206 209 212 217 213 211 200 220 214 210 218 228 229 233 224 220 235 232 237 242 245 241 245 250 245 236 235 231 245 240 278 287 291 277 274 268 271 272 273
192 200 204 203 201 203 207 208 211 211 213 209 205 207 206 199 193 206 208 220 218 221 235 219 225 230 235 239 242 245 241 243 254 259 266 269 271 277 269 256 264 263 267 264 261
202 193 201 197 200 205 206 207 213 206 221 192 205 213 218 209 206 205 214 198 214 218 228 226 234 235 238 240 242 246 249 252 257 258 260 264 266 263 246 252 263 263 259 264 269
196 195 195 196 200 199 200 187 197 201 209 207 195 211 212 210 222 208 215 216 223 230 220 230 231 231 236 243 243 244 245 253 254 255 257 253 253 255 262 269 273 273 273 270 272
Height
5752 5756 5761 5766 5770 5775 5779 5783 5788 5792 5796 5800 5805 5809 5813 5817 5821 5825 5828 5831 5834 5837 5839 5841 5844 5847 5849 5851 5853 5855 5857 5860 5860 5858 5859 5862 5866 5868 5868 5869 5868 5869 5869 5873 5871
5741 5745 5750 5755 5760 5764 5768 5773 5777 5782 5786 5791 5796 5800 5804 5809 5813 5817 5822 5822 5826 5830 5832 5835 5838 5840 5842 5844 5847 5849 5852 5854 5854 5854 5856 5856 5861 5860 5866 5863 5863 5865 5867 5867 5868
5729 5733 5737 5742 5748 5752 5757 5761 5766 5771 5775 5781 5785 5790 5795 5799 5804 5811 5811 5815 5818 5822 5824 5828 5830 5832 5836 5837 5840 5844 5846 5846 5848 5848 5851 5854 5853 5857 5859 5859 5859 5860 5863 5863 5862
5717 5721 5725 5730 5736 5741 5745 5750 5754 5759 5764 5769 5774 5779 5784 5790 5795 5798 5805 5809 5810 5812 5815 5819 5822 5823 5827 5830 5833 5835 5838 5839 5843 5842 5845 5849 5847 5851 5852 5855 5854 5854 5857 5859 5857
5704 5708 5713 5718 5723 5728 5733 5737 5741 5747 5752 5756 5762 5767 5774 5780 5786 5789 5795 5797 5799 5801 5806 5809 5811 5814 5818 5822 5823 5825 5832 5832 5834 5835 5837 5842 5843 5842 5847 5848 5848 5847 5849 5853 5853
5690 5696 5700 5705 5710 5715 5720 5724 5729 5734 5739 5744 5750 5756 5765 5771 5774 5777 5782 5788 5790 5793 5795 5798 5802 5805 5810 5814 5816 5818 5819 5823 5826 5825 5831 5835 5838 5835 5843 5840 5842 5842 5844 5841 5849
5676 5682 5688 5693 5696 5702 5706 5711 5716 5720 5725 5731 5737 5744 5753 5762 5763 5767 5773 5775 5779 5782 5784 5787 5793 5797 5803 5805 5804 5808 5812 5814 5818 5820 5824 5824 5828 5831 5832 5832 5835 5837 5837 5837 5837
5661 5667 5673 5679 5684 5688 5692 5696 5701 5706 5711 5717 5724 5731 5743 5749 5752 5756 5758 5763 5765 5770 5775 5779 5784 5789 5793 5795 5794 5798 5800 5805 5814 5812 5812 5811 5820 5825 5823 5824 5827 5829 5829 5830 5830
5645 5653 5658 5664 5669 5673 5678 5682 5687 5693 5697 5701 5711 5719 5732 5736 5737 5740 5744 5752 5756 5760 5766 5769 5773 5778 5783 5781 5782 5783 5789 5798 5804 5801 5800 5800 5809 5815 5815 5815 5818 5821 5822 5821 5823
5629 5636 5641 5647 5653 5658 5662 5666 5671 5678 5683 5685 5694 5705 5715 5723 5728 5733 5737 5742 5744 5748 5754 5759 5761 5767 5769 5767 5771 5779 5783 5788 5789 5793 5786 5787 5796 5803 5807 5807 5809 5812 5814 5814 5814
5611 5619 5625 5630 5637 5641 5645 5652 5661 5665 5666 5669 5682 5695 5701 5712 5717 5721 5724 5728 5731 5733 5739 5745 5751 5758 5755 5763 5765 5767 5769 5772 5774 5777 5776 5780 5786 5794 5796 5798 5800 5802 5804 5804 5805
5592 5601 5607 5614 5619 5623 5629 5641 5649 5651 5652 5656 5665 5677 5682 5692 5702 5706 5711 5715 5719 5725 5728 5730 5739 5744 5747 5750 5752 5755 5757 5762 5762 5766 5766 5768 5771 5782 5786 5791 5791 5791 5793 5793 5793
5572 5581 5589 5595 5599 5606 5617 5631 5631 5632 5633 5637 5649 5661 5673 5677 5687 5698 5698 5704 5707 5713 5715 5719 5735 5733 5734 5739 5741 5742 5748 5752 5754 5755 5753 5754 5760 5772 5777 5780 5780 5781 5781 5781 5781
5552 5562 5570 5575 5583 5593 5604 5612 5613 5615 5611 5621 5631 5646 5656 5659 5671 5683 5688 5690 5693 5701 5706 5708 5719 5719 5723 5731 5731 5734 5744 5743 5743 5744 5745 5745 5742 5762 5767 5770 5771 5771 5770 5770 5769
5533 5542 5550 5555 5569 5581 5591 5596 5599 5600 5589 5601 5619 5633 5646 5648 5668 5675 5678 5676 5683 5690 5694 5701 5707 5711 5713 5727 5721 5730 5727 5731 5733 5733 5734 5740 5732 5754 5758 5760 5760 5759 5758 5756 5758
5513 5522 5528 5536 5552 5566 5569 5577 5578 5580 5570 5584 5605 5619 5626 5637 5646 5653 5661 5666 5672 5676 5681 5689 5692 5697 5704 5711 5714 5720 5720 5723 5723 5725 5722 5735 5728 5738 5749 5749 5746 5744 5745 5747 5748
5492 5501 5508 5517 5539 5545 5553 5555 5552 5553 5561 5570 5590 5605 5614 5625 5633 5639 5649 5653 5658 5665 5670 5678 5682 5689 5696 5700 5702 5709 5713 5714 5715 5715 5715 5723 5719 5732 5736 5734 5734 5732 5732 5735 5737
5469 5479 5487 5501 5514 5523 5530 5532 5528 5539 5548 5558 5580 5593 5599 5613 5618 5628 5636 5641 5648 5655 5663 5667 5672 5679 5687 5691 5698 5703 5707 5709 5707 5708 5711 5712 5710 5725 5722 5724 5723 5722 5721 5725 5727
5447 5456 5465 5479 5493 5502 5506 5504 5511 5525 5541 5551 5565 5573 5585 5597 5606 5615 5622 5633 5642 5648 5653 5657 5663 5672 5680 5684 5689 5694 5696 5705 5701 5702 5700 5701 5707 5711 5712 5712 5715 5714 5715 5715 5717
5433 5441 5452 5465 5476 5484 5488 5493 5502 5519 5531 5539 5549 5563 5572 5585 5592 5601 5611 5623 5630 5637 5644 5650 5656 5663 5668 5673 5676 5681 5688 5691 5693 5690 5693 5695 5695 5696 5700 5701 5703 5706 5705 5707 5709
5423 5430 5445 5455 5465 5471 5474 5483 5496 5510 5523 5530 5541 5553 5566 5576 5585 5594 5601 5613 5619 5630 5636 5643 5650 5656 5658 5663 5669 5673 5677 5682 5686 5687 5688 5686 5686 5685 5687 5689 5691 5695 5697 5698 5699
5413 5423 5435 5443 5451 5459 5466 5477 5494 5499 5512 5523 5532 5544 5556 5571 5577 5582 5590 5605 5618 5624 5628 5637 5642 5645 5651 5654 5659 5663 5668 5672 5675 5682 5681 5677 5677 5680 5681 5681 5683 5685 5686 5687 5689
5407 5417 5426 5434 5440 5450 5461 5474 5482 5491 5501 5516 5526 5536 5546 5557 5566 5574 5586 5598 5604 5612 5620 5626 5629 5635 5641 5646 5647 5652 5657 5663 5668 5671 5674 5670 5676 5675 5676 5675 5674 5675 5674 5675 5676
5403 5411 5420 5425 5436 5447 5455 5467 5477 5486 5496 5511 5519 5530 5540 5547 5559 5571 5580 5588 5597 5605 5613 5617 5621 5627 5633 5641 5643 5646 5650 5655 5655 5659 5661 5663 5664 5665 5667 5664 5664 5664 5664 5667 5668
5398 5406 5413 5420 5430 5442 5453 5464 5474 5481 5489 5499 5510 5520 5532 5543 5551 5561 5569 5579 5590 5596 5600 5605 5613 5620 5625 5627 5632 5637 5641 5643 5641 5648 5648 5657 5657 5663 5659 5654 5655 5656 5656 5656 5658
5399 5405 5414 5428 5438 5447 5456 5465 5473 5480 5482 5492 5504 5521 5530 5536 5550 5562 5565 5572 5581 5590 5594 5600 5607 5613 5616 5621 5624 5628 5633 5635 5638 5639 5642 5648 5649 5649 5644 5645 5646 5645 5645 5645 5647
5395 5407 5417 5425 5433 5439 5451 5465 5471 5476 5485 5495 5510 5518 5525 5537 5541 5554 5562 5568 5574 5583 5589 5595 5600 5604 5608 5613 5617 5618 5625 5628 5631 5632 5636 5635 5643 5635 5633 5633 5635 5636 5637 5636 5635